Flag for United Kingdom Weather past 2 weeks in Bath, England, United Kingdom

Now
45 °F

Passing clouds.


Feels Like: 37 °F
Forecast: N/A
Wind: 16 mph from West

Location: Bristol / Lulsgate

Current Time: Dec 25, 2014 at 3:06:18 PM

Latest Report: Dec 25, 2014 at 2:20 PM


Visibility: N/A

Pressure: 30.42 "Hg

Humidity: 76%

Dew point: 37 °F

Location of BathLocation

Historic Weather in Bath — Graph

°F

Bath temperature yesterday

Maximum temperature yesterday: 50 °F (at 12:20 AM)
Minimum temperature yesterday: 39 °F (at 6:20 PM)
Average temperature yesterday: 44 °F

Past Weeks' High & Low Weather Summary

 TemperatureHumidityPressure
High54 °F (Dec 18, 12:20 PM)100% (Dec 12, 7:50 AM)30.45 "Hg (Dec 12, 7:50 AM)
Low34 °F (Dec 13, 12:50 AM)61% (Dec 24, 1:50 PM)29.27 "Hg (Dec 12, 2:50 AM)
Average45 °F88%29.96 "Hg
* Reported Dec 10 1:20 PM — Dec 25 1:50 PM, Bath, Weather by CustomWeather, © 2014

Note: Actual official high and low records may vary slightly from our data, if they occured in-between our weather recording intervals... More about our weather records

Advertising

Bath weather history for previous 24 hours

 ConditionsComfort  
Time TempWeatherWind HumidityBarometerVisibility
1:50 PM
Dec 25
45 °FPassing clouds.15 mph76%30.42 "HgN/A
1:20 PM45 °FPassing clouds.10 mph76%30.42 "HgN/A
12:50 PM45 °FPassing clouds.13 mph81%30.42 "HgN/A
12:20 PM45 °FSunny.13 mph81%30.42 "Hg10 mi
11:50 AM43 °FSunny.9 mph87%30.42 "Hg10 mi
11:20 AM43 °FSunny.9 mph87%30.42 "Hg10 mi
10:50 AM43 °FSunny.10 mph87%30.42 "Hg10 mi
10:20 AM41 °FSunny.10 mph87%30.42 "Hg10 mi
9:50 AM41 °FSunny.13 mph87%30.39 "Hg10 mi
9:20 AM41 °FSunny.10 mph87%30.39 "Hg10 mi
8:50 AM39 °FSunny.10 mph93%30.39 "Hg10 mi
8:20 AM37 °FSunny.9 mph93%30.39 "Hg10 mi
7:50 AM39 °FClear.9 mph87%30.36 "Hg10 mi
7:20 AM39 °FClear.7 mph93%30.36 "Hg10 mi
6:50 AM39 °FClear.8 mph93%30.36 "Hg10 mi
6:20 AM39 °FClear.8 mph93%30.33 "Hg10 mi
5:20 AM41 °FClear.12 mph87%30.33 "Hg10 mi
4:50 AM41 °FClear.10 mph87%30.33 "Hg10 mi
4:20 AM41 °FClear.8 mph87%30.30 "Hg10 mi
3:50 AM41 °FClear.9 mph87%30.30 "Hg10 mi
3:20 AM39 °FClear.12 mph93%30.30 "Hg10 mi
2:50 AM39 °FClear.10 mph87%30.30 "Hg10 mi
2:20 AM39 °FClear.10 mph87%30.30 "Hg10 mi
1:50 AM41 °FClear.13 mph81%30.27 "Hg10 mi
1:20 AM39 °FClear.13 mph87%30.27 "Hg10 mi
12:50 AM39 °FClear.13 mph87%30.27 "Hg10 mi
12:20 AM41 °FClear.13 mph81%30.27 "Hg10 mi
11:50 PM
Dec 24
41 °FClear.13 mph81%30.27 "Hg10 mi
11:20 PM41 °FClear.14 mph81%30.27 "Hg10 mi
10:50 PM39 °FClear.13 mph87%30.24 "Hg10 mi
10:20 PM41 °FClear.14 mph81%30.24 "Hg10 mi
9:50 PM41 °FClear.17 mph81%30.24 "Hg10 mi
9:20 PM41 °FPassing clouds.14 mph81%30.24 "HgN/A
8:50 PM41 °FPassing clouds.12 mph81%30.24 "HgN/A
8:20 PM41 °FPassing clouds.13 mph81%30.21 "HgN/A
7:50 PM39 °FPassing clouds.13 mph87%30.21 "HgN/A
7:20 PM39 °FClear.13 mph81%30.21 "Hg10 mi
6:50 PM39 °FClear.13 mph81%30.21 "Hg10 mi
6:20 PM39 °FClear.12 mph81%30.18 "Hg10 mi
5:50 PM41 °FClear.13 mph76%30.18 "Hg10 mi
5:20 PM41 °FPassing clouds.14 mph76%30.18 "HgN/A
4:50 PM41 °FPassing clouds.15 mph76%30.15 "HgN/A
4:20 PM43 °FPassing clouds.15 mph71%30.15 "HgN/A
3:50 PM43 °FScattered clouds.15 mph71%30.15 "HgN/A
3:20 PM43 °FPassing clouds.16 mph76%30.15 "HgN/A
Weather by CustomWeather, © 2014

See weather overviewHow to use our weather pages